www.pogodaiklimat.ru

АРХИВ ПОГОДЫ в Сидар-Рапидсе

Время (UTC), дата Ветер
(напр.,м/с)
 
Видим.   Явления Облачность Т
(С)
Тd
(С)
f
(%)
Тe
(С)
Тes
(С)
Комфортность

P
(гПа)

Po
(гПа)
Тmin
(С)
Tmax
(С)
R
(мм)
SD
(см)
01:52 24.03 ЮВ  16 км    10/0 3600 м
[средняя] 
+8.3  +0.6  58  +5  +5    1020.4  988.4         
02:52 24.03 Ю  16 км    10/0 2550 м
[средняя] 
+8.3  +0.6  58  +5  +5    1020.5  988.8         
03:52 24.03 Ю  16 км  слабый дождь  10/10 1800 м  +7.2  +1.7  68  +3  +3    1020.2  988.4         
04:52 24.03 ЮВ  16 км    10/10 1500 м  +6.1  +3.3  82  +2  +2    1019.5  987.8  +6.1  +9.4     
05:52 24.03 ЮВ  16 км    10/8 1650 м
[средняя] 
+6.1  +2.8  79  +2  +2    1019.2  987.5         
06:52 24.03 В  16 км    10/10 1500 м  +5.0  +3.9  93  +1  +1    1019.0  987.1         
07:52 24.03 В  14 км  слабый дождь  10/10 750 м  +5.0  +3.3  89  +1  +1    1018.4  986.5      0.3   
08:02 24.03 В  8 км  слабый дождь, дымка  10/10 690 м  +5.0  +3.3  89  +1  +1      986.5         
08:52 24.03 В  16 км    10/10 600 м  +5.0  +3.9  93  +1  +1    1017.8  986.1         
09:52 24.03 В  6 км  слабый дождь, дымка  10/10 300 м  +4.4  +3.9  97  -1  -1    1017.5  985.8         
10:35 24.03 В  6 км  слабый дождь  10/10 240 м  +4.4  +4.4  100  -0  -0      985.5         
10:52 24.03 ЮВ  6 км    10/10 270 м  +4.4  +4.4  100  0  0    1017.4  985.5  +4.4  +6.1  1.3   
11:24 24.03 В  6 км    10/10 240 м  +4.4  +4.4  100  -0  -0      985.5         
11:52 24.03 В  4 км    10/10 240 м  +5.0  +5.0  100  +1  +1    1017.5  985.5         
12:52 24.03 В  4 км    10/10 150 м  +5.6  +5.6  100  +1  +1    1017.5  985.5         
13:33 24.03 В  3 км  дымка  10/10 90 м  +5.6  +5.6  100  +1  +1      985.5         
13:52 24.03 В  2 км  дымка  10/10 90 м  +6.1  +6.1  100  +2  +2    1017.2  985.2      0.8   
14:38 24.03 ЮВ  4 км  дымка  10/10 90 м  +7.8  +7.8  100  +4  +4      985.2         
14:47 24.03 ЮВ  4 км  дымка  10/10 150 м  +8.0  +8.0  100  +4  +4      985.5         
14:52 24.03 ЮВ  6 км  дымка  10/10 150 м  +7.8  +7.8  100  +4  +4    1017.3  985.5         
15:52 24.03 В  6 км  дымка  10/10 210 м  +8.3  +7.8  97  +5  +5    1017.0  985.2         
16:52 24.03 ЮВ  6 км  дымка  10/10 270 м  +9.4  +8.3  93  +7  +7    1016.6  984.8  +4.4  +9.4  0.8   
17:16 24.03 ЮВ  6 км  дымка  10/10 300 м  +9.4  +7.8  90  +8  +8      984.8         
17:52 24.03 В  6 км  дымка  10/10 360 м  +10.0  +8.3  89  +8  +8    1015.9  984.2         
18:45 24.03 СВ  8 км  мгла  10/10 450 м  +11.1  +8.3  83  +9  +9      983.8         
18:52 24.03 В  8 км  мгла  10/10 450 м  +10.6  +7.8  83  +8  +8    1015.7  983.8         
19:43 24.03 СВ  6 км  дымка  10/10 420 м  +10.0  +7.8  86  +7  +7      984.5         
19:52 24.03 СВ  6 км  дымка  10/10 420 м  +10.0  +7.8  86  +7  +7    1016.2  984.5         
20:52 24.03 СВ  6 км  дымка  10/10 360 м  +9.4  +7.8  90  +6  +6    1016.5  984.5         
21:52 24.03 СВ  6 км  слабый дождь, дымка  10/10 330 м  +8.3  +7.2  93  +4  +4    1016.8  984.8         
22:03 24.03 СВ  4 км  слабый дождь, дымка  10/10 270 м  +8.3  +7.8  97  +4  +4      984.8         
22:32 24.03 СВ  3 км  дымка  10/10 270 м  +7.8  +7.8  100  +4  +4      985.2         
22:41 24.03 СВ  4 км  дымка  10/10 240 м  +7.8  +7.8  100  +3  +3      985.2         
22:52 24.03 СВ  4 км  дымка  10/10 240 м  +7.8  +7.2  96  +3  +3    1017.0  985.2  +7.8  +11.1     
23:26 24.03 СВ  6 км  дымка  10/10 210 м  +7.8  +6.7  93  +3  +3      985.8         
23:52 24.03 СВ  10 км  дымка  10/10 270 м  +7.2  +6.7  97  +2  +2    1017.8  985.8         
00:44 25.03 СВ  11 км    10/10 300 м  +7.2  +6.7  97  +2  +2      986.8         
00:52 25.03 СВ  11 км    10/10 270 м  +7.2  +6.7  97  +2  +2    1018.8  986.8         
01:52 25.03 СВ  10 км  дымка  10/10 270 м  +6.7  +6.7  100  +1  +1    1019.6  987.5         
02:37 25.03 СВ  8 км  дымка  10/10 210 м  +6.7  +6.1  96  +2  +2      988.1         
02:52 25.03 СВ  8 км  слабый дождь, дымка  10/10 720 м  +6.7  +5.6  93  +2  +2    1020.1  988.1         
03:29 25.03 СВ  11 км    10/10 750 м  +6.1  +5.6  97  +1  +1      988.4         
03:36 25.03 СВ  11 км    10/10 750 м  +6.1  +5.6  97  +2  +2      988.4         
03:44 25.03 СВ  10 км  дымка  10/10 780 м  +6.1  +5.6  97  +2  +2      988.4         
03:52 25.03 СВ  8 км  дымка  10/10 780 м  +6.1  +5.6  97  +2  +2    1020.5  988.4         
04:52 25.03 СВ  11 км    10/10 1650 м  +5.6  +5.0  96  +1  +1    1021.1  989.1  +5.6  +7.8  0.3   
05:08 25.03 СВ  11 км    10/10 420 м  +6.1  +5.0  93  +2  +2      989.4         
05:52 25.03 СВ  10 км  дымка  10/10 390 м  +5.6  +5.0  96  +1  +1    1021.6  989.8         

 

Местоположение метеостанции The Eastern Iowa Airport: широта 41.8844 долгота -91.7106 высота над уровнем моря 263 м.

В архиве по умолчанию представлена погода в Сидар-Рапидсе за последние 1-2 суток. Обновление информации о фактической погоде в базе происходит ежечасно! Архивные данные за месяц целиком и за предыдущие месяцы Вы можете получить, выбрав интересующий диапазон дат из раскрывающегося списка и нажав кнопку "Ввод!".

Внимание! Архив погоды МЕТАР в базе сайта в настоящее время начинается c 1 января 2011 г. Нет смысла пытаться выбрать более раннюю дату.

Внимание! Время в таблицах - всемирное. Для получения местного времени необходимо прибавить поправку, которая в Сидар-Рапидсе равна -6 ч.

Ветер - указаны скорость ветра в м/с и направление, откуда дует ветер: С - северный, СВ - северо-восточный, В - восточный, ЮВ - юго-восточный, Ю - южный, ЮЗ - юго-западный, З - западный, СЗ - северо-западный.
Видимость - горизонтальная дальность видимости в метрах или километрах. При видимости от 1 до 10 км при отсутствии осадков обычно наблюдается дымка, при ухудшении видимости до 1 км и менее - туман. В сухую погоду видимость может ухудшаться дымом, пылью или мглою.
Атмосферные явления - указаны явления, наблюдавшиеся в указанный момент времени.
Облачность - указаны через наклонную черту верхняя и нижняя облачность в баллах и высота нижней границы облаков в метрах. Внимание: облачность, как и прочие метеорологические величины в США измеряются автоматическими метеостанциями. Указанные значения в баллах носят условный характер и показывают процент времени, в течение которого, в среднем, лазерный луч высотомера отражался от облаков обратно.
T - Температура воздуха - температура, измеренная на высоте 2 м над землей.
Td - Температура точки росы - температура, при понижении до которой содержащийся в воздухе водяной пар достигнет насыщения.
f - Относительная влажность воздуха - влажноcть воздуха, измеренная на высоте 2 м над землей.
Te - Эффективная температура - температура, которую ощущает одетый по сезону человек в тени. Характеристика душности погоды. При расчете учитывается влияние влажности воздуха и скорости ветра на теплоощущения человека.
Tes - Эффективная температура на солнце - температура, которую ощущает человек, с поправкой на солнечный нагрев. Характеристика знойности погоды. Зависит от высоты солнца над горизонтом, облачности и скорости ветра. Ночью, в пасмурную погоду, а также при ветре 12 м/с и более поправка равна нулю.
P - Атмосферное давление - приведенное к уровню моря атмосферное давление.
Po - Атмосферное давление - измеренное на уровне метеостанции атмосферное давление.
Tmin - Минимальная температура - минимум температуры воздуха на высоте 2 м над землей.
Tmax - Максимальная температура - максимум температуры воздуха на высоте 2 м над землей.
R - Количество осадков - Количество выпавших осадков за 3 или 6 часов, мм.
SD - Снежный покров - Высота снежного покрова, см.